Back to catalog

COSMOS 2251 DEB

AliveLEO
NORAD 34323·DEBRIS·🇷🇺 Russia

Launched Jun 16, 1993 from Plesetsk Cosmodrome

Loading…

Next Passes (next 24 hours)

TLE

FreshSource: Space-Track

Epoch: Sep 14, 2026, 11:28 UTC

1 34323U 93036NV  26257.47785016  .00007219  00000-0  90970-3 0  9993
2 34323  73.9488 298.6257 0056439 279.7598 145.3878 14.81027891925147

Track COSMOS 2251 DEB in real time with AllMySat

Download on the App Store